Location: Newark
(13.0328°N, 9.6142°E)
Time: 17:19:09
(UTC+00:00)

Envisat - Pass Details

Date: 30 October 2019
Orbit: 764 x 766 km, 98.1° (Epoch: 22 November)

Event Time Altitude Azimuth Distance (km) Brightness Sun altitude
Rises 17:48:34 0° 171° (S) 3,222 6.3 -13.4°
Reaches altitude 10° 17:50:52 10° 172° (S) 2,296 5.5 -14.0°
Maximum altitude 17:55:56 78° 258° (WSW) 784 3.1 -15.2°
Drops below altitude 10° 18:00:59 10° 345° (NNW) 2,297 5.5 -16.4°
Sets 18:03:18 0° 346° (NNW) 3,222 6.3 -16.9°
